Overview Statistics Trail Chart Weather Telemetry Raw packets
 

This is the latest recevied weather packets stored in our database for station/object WI0K. If no packets are shown the sender has not sent any weather packets the latest 10 day(s).

<< 19 20 21 22 23 24 25 >>
Time Temp. Humidity Pressure Rain* Wind** Luminosity Snow
1788531046 20.56° C 45% 1018.6 hPa 0 mm - 263 W/m² -
1788530745 20.56° C 45% 1018.5 hPa 0 mm - 245 W/m² -
1788530444 20° C 45% 1018.4 hPa 0 mm - 223 W/m² -
1788530143 20° C 45% 1018.3 hPa 0 mm - 195 W/m² -
1788529843 19.44° C 47% 1018.3 hPa 0 mm - 188 W/m² -
1788529542 18.33° C 49% 1018.3 hPa 0 mm - 175 W/m² -
1788529241 18.33° C 51% 1018.4 hPa 0 mm - 158 W/m² -
1788528941 18.33° C 49% 1018.2 hPa 0 mm - 138 W/m² -
1788528640 17.78° C 49% 1018.2 hPa 0 mm - 119 W/m² -
1788528340 17.78° C 49% 1018.2 hPa 0 mm - 110 W/m² -
1788528037 17.22° C 50% 1018.1 hPa 0 mm - 95 W/m² -
1788527753 17.22° C 51% 1018.1 hPa 0 mm - 69 W/m² -
1788527436 16.67° C 51% 1017.9 hPa 0 mm - 62 W/m² -
1788527135 16.67° C 53% 1017.9 hPa 0 mm - 53 W/m² -
1788526835 16.11° C 54% 1018.1 hPa 0 mm - 40 W/m² -
1788526534 15.56° C 57% 1017.9 hPa 0 mm - 22 W/m² -
1788526233 15.56° C 58% 1017.9 hPa 0 mm - 19 W/m² -
1788525932 15.56° C 58% 1017.9 hPa 0 mm - 15 W/m² -
1788525632 15.56° C 56% 1017.9 hPa 0 mm - 11 W/m² -
1788525331 16.11° C 56% 1017.8 hPa 0 mm - 7 W/m² -
1788525030 16.11° C 55% 1017.7 hPa 0 mm - 4 W/m² -
1788524729 16.11° C 54% 1017.7 hPa 0 mm - 2 W/m² -
1788524429 15.56° C 55% 1017.6 hPa 0 mm - 1 W/m² -
1788524128 15.56° C 58% 830.7 hPa 0 mm - 1 W/m² -
1788523827 15.56° C 62% 1017.6 hPa 0 mm - 0 W/m² -

* Rain latest hour (hover to see other rain measurements)
** Current wind speed in m/s (hover to see current wind gust speed)